Location: UBC Liquid-Mirror Observatory
(49.2876°N, 122.5728°W)
Time: 12:34:31
(UTC-07:00)

Amateur Radio Satellites - All Passes

Search period start: 24 May 2016 12:04
Search period end: 25 May 2016 12:04
Location: UBC Liquid-Mirror Observatory, 49.2876°N, 122.5728°W

Satellite Date Start Highest point End Downlink Frequencies (MHz)
Time Altitude Azimuth
UWE-3 24 May 12:07:23 12:09:19 13° 302° (WNW) 12:11:16 435.000/436.395/437.385
BUGSAT 1 24 May 12:08:28 12:12:41 77° 74° (ENE) 12:16:54 437.445
POPSAT HIP 1 24 May 12:08:52 12:13:00 50° 260° (W) 12:17:08 437.405
QB50P1 24 May 12:09:39 12:13:46 48° 260° (W) 12:17:54 145.935-145.965
QB50P2 24 May 12:10:41 12:14:46 45° 261° (W) 12:18:52 145.880/145.840
POLYITAN 1 24 May 12:13:08 12:17:12 44° 261° (W) 12:21:17 437.675
AISAT 24 May 12:14:44 12:18:35 28° 95° (E) 12:22:23 437.250
HUMSAT D 24 May 12:20:33 12:24:24 39° 291° (WNW) 12:28:17 437.325/437.525
FUNcube-1 24 May 12:21:45 12:23:56 14° 301° (WNW) 12:26:07 145.935
CUSAT 1 24 May 12:22:15 12:28:13 50° 91° (E) 12:35:31 437.405
BEESAT 2 24 May 12:23:14 12:24:18 11° 109° (ESE) 12:25:21 435.950
GONETS M04 24 May 12:24:23 12:29:09 16° 289° (WNW) 12:33:54
JAS-2 24 May 12:25:30 12:32:37 54° 65° (ENE) 12:40:13 435.910
SPROUT 24 May 12:26:46 12:29:21 16° 89° (E) 12:31:55 437.525
NANOSAT C BR1 24 May 12:30:40 12:34:28 32° 264° (W) 12:38:16 145.865
Gurwin Techsat 1B 24 May 12:34:08 12:37:07 15° 53° (NE) 12:40:06 435.225
AO-85 24 May 12:34:49 12:37:31 14° 6° (N) 12:40:07 145.980
ESTCUBE 1 24 May 12:37:31 12:42:05 64° 102° (ESE) 12:46:35 437.505/2401.250
Oscar 19 24 May 12:38:39 12:43:11 31° 63° (ENE) 12:47:44 437.125/150
O/OREOS (USA 219) 24 May 12:42:08 12:45:33 20° 314° (NW) 12:48:57 437.305
UKube-1 24 May 12:42:39 12:46:38 34° 97° (E) 12:50:35 .
HO-68 24 May 12:45:21 12:47:31 12° 324° (NW) 12:49:40 435.675
Cosmos 2499 24 May 12:53:10 12:58:01 17° 287° (WNW) 13:03:00 435.465 / 435.565
AO-7 24 May 13:00:33 13:05:14 17° 35° (NE) 13:09:56 29.400- 29.500
BEESAT 3 24 May 13:02:03 13:05:46 41° 121° (ESE) 13:09:31 437.485
TISAT 1 24 May 13:05:32 13:06:50 11° 87° (E) 13:08:08 437.305
DUCHIFAT 1 24 May 13:13:01 13:15:14 14° 271° (W) 13:17:29 145.980
ITAMSAT 1 24 May 13:14:34 13:17:15 14° 52° (NE) 13:19:57 435.822/435.867
VELOX 1 24 May 13:15:08 13:19:36 81° 288° (WNW) 13:24:02 145.980
CUBEBUG 1 24 May 13:17:55 13:22:20 73° 287° (WNW) 13:26:40 437.445
DX 1 24 May 13:22:21 13:26:45 80° 286° (WNW) 13:31:06 434.975-435.025
50 SAT 24 May 13:24:46 13:28:21 46° 289° (WNW) 13:31:56 437.505
DANDE 24 May 13:25:28 13:30:46 69° 97° (E) 13:37:50 436.750
PCSat 24 May 13:30:22 13:34:44 24° 327° (NNW) 13:39:08 145.827
Cosmos 2491 24 May 13:43:02 13:48:30 17° 49° (NE) 13:53:54 435.465 / 435.565
BUGSAT 1 24 May 13:46:46 13:48:36 12° 272° (W) 13:50:25 437.445
AISAT 24 May 13:51:04 13:55:09 36° 293° (WNW) 13:59:11 437.250
BEESAT 2 24 May 13:57:28 14:01:27 85° 126° (SE) 14:05:28 435.950
SPROUT 24 May 14:01:31 14:05:44 62° 288° (WNW) 14:09:55 437.525
CUSAT 1 24 May 14:04:33 14:10:34 40° 296° (WNW) 14:17:47 437.405
BEESAT 24 May 14:09:58 14:11:45 12° 86° (E) 14:13:31 436.000
Gurwin Techsat 1B 24 May 14:10:56 14:16:15 79° 73° (ENE) 14:21:36 435.225
JAS-2 24 May 14:11:01 14:17:49 41° 267° (W) 14:25:08 435.910
ESTCUBE 1 24 May 14:15:17 14:18:27 19° 301° (WNW) 14:21:36 437.505/2401.250
AO-85 24 May 14:15:33 14:19:43 26° 30° (NNE) 14:23:35 145.980
Oscar 19 24 May 14:17:25 14:22:22 44° 262° (W) 14:27:22 437.125/150
UKube-1 24 May 14:18:52 14:22:37 29° 295° (WNW) 14:26:20 .
TISAT 1 24 May 14:38:54 14:43:06 83° 285° (WNW) 14:47:16 437.305
BEESAT 3 24 May 14:40:04 14:43:35 30° 321° (NW) 14:47:08 437.485
AO-7 24 May 14:48:17 14:56:08 50° 58° (ENE) 15:04:03 29.400- 29.500
ITAMSAT 1 24 May 14:50:44 14:55:53 76° 73° (ENE) 15:01:05 435.822/435.867
VELOX 1 24 May 14:53:31 14:55:21 12° 305° (NW) 14:57:11 145.980
CUBEBUG 1 24 May 14:56:35 14:57:49 11° 306° (NW) 14:59:04 437.445
DX 1 24 May 15:00:31 15:02:13 12° 305° (NW) 15:03:54 434.975-435.025
DANDE 24 May 15:09:42 15:14:32 26° 304° (WNW) 15:20:25 436.750
SWISSCUBE 24 May 15:15:21 15:20:02 50° 100° (E) 15:24:42 437.505
PCSat 24 May 15:18:01 15:20:12 12° 353° (N) 15:22:23 145.827
ITUPSAT 1 24 May 15:19:34 15:24:14 49° 100° (E) 15:28:54 437.325
BEESAT 2 24 May 15:36:50 15:39:49 20° 329° (NNW) 15:42:49 435.950
AIST 2 24 May 15:37:40 15:41:45 66° 125° (SE) 15:45:53 435.215
Cosmos 2491 24 May 15:38:45 15:47:30 63° 75° (ENE) 15:56:08 435.465 / 435.565
BEESAT 24 May 15:45:27 15:50:17 85° 104° (ESE) 15:55:04 436.000
YUBILEINY 24 May 15:47:23 15:54:11 27° 79° (ENE) 16:00:59 435.215
MOZHAYETS 4 24 May 15:52:01 15:54:06 13° 87° (E) 15:56:09
CUSAT 1 24 May 15:53:01 15:55:17 11° 321° (NW) 15:57:38 437.405
Gurwin Techsat 1B 24 May 15:53:26 15:56:50 17° 272° (W) 16:00:16 435.225
AO-85 24 May 15:55:56 16:00:47 78° 233° (SW) 16:05:09 145.980
KKS-1 24 May 16:01:18 16:04:28 19° 91° (E) 16:07:38 437.445
TISAT 1 24 May 16:16:38 16:18:04 12° 304° (NW) 16:19:30 437.305
BEESAT 3 24 May 16:21:33 16:22:31 11° 344° (NNW) 16:23:29 437.485
NOAA 18 24 May 16:26:01 16:28:48 14° 50° (NE) 16:31:35 137.9125
HORYU 2 24 May 16:29:23 16:33:38 48° 69° (ENE) 16:37:54 437.375
ITAMSAT 1 24 May 16:32:35 16:35:57 17° 271° (W) 16:39:21 435.822/435.867
RS-15 24 May 16:33:34 16:40:08 18° 94° (E) 16:46:52 29.354- 29.394
AO-7 24 May 16:41:03 16:48:58 48° 260° (W) 16:56:59 29.400- 29.500
STARS 24 May 16:46:06 16:49:51 27° 95° (E) 16:53:35 437.465
SWISSCUBE 24 May 16:53:42 16:57:34 25° 299° (WNW) 17:01:25 437.505
Cubesat XI-IV 24 May 16:54:53 16:58:20 18° 55° (NE) 17:01:49 437.490
ITUPSAT 1 24 May 16:57:55 17:01:49 25° 299° (WNW) 17:05:43 437.325
BRITE-PL 24 May 17:00:10 17:04:20 21° 58° (ENE) 17:08:31 437.365/2234.400
NOAA 15 24 May 17:01:25 17:05:47 27° 60° (ENE) 17:10:10 137.62
PCSat 24 May 17:02:55 17:06:02 15° 19° (NNE) 17:09:09 145.827
Cosmos 2504 24 May 17:05:45 17:10:39 20° 76° (ENE) 17:15:43 435.465 / 435.565
AIST 2 24 May 17:17:13 17:20:37 24° 326° (NW) 17:24:03 435.215
BEESAT 24 May 17:24:35 17:27:27 16° 304° (NW) 17:30:19 436.000
MOZHAYETS 4 24 May 17:27:16 17:31:54 86° 288° (WNW) 17:36:33
Cosmos 2491 24 May 17:36:14 17:43:50 35° 278° (W) 17:51:24 435.465 / 435.565
KKS-1 24 May 17:37:02 17:41:23 54° 290° (WNW) 17:45:42 437.445
AO-85 24 May 17:38:49 17:40:17 11° 254° (WSW) 17:41:43 145.980
CUTE-I 24 May 17:40:28 17:45:19 37° 64° (ENE) 17:50:11 437.470
YUBILEINY 24 May 17:41:21 17:50:03 79° 281° (W) 17:58:49 435.215
GOMX 1 24 May 17:42:17 17:46:33 24° 61° (ENE) 17:50:45 467.674
LilacSat-2 24 May 17:49:48 17:53:09 30° 68° (ENE) 17:56:30 437.200
HO-68 24 May 17:56:18 18:00:22 16° 43° (NE) 18:04:26 435.675
NOAA 18 24 May 18:03:07 18:08:32 70° 71° (ENE) 18:13:59 137.9125
HORYU 2 24 May 18:07:06 18:10:28 21° 268° (W) 18:13:50 437.375
STARS 24 May 18:22:16 18:26:18 36° 293° (WNW) 18:30:18 437.465
Cubesat XI-IV 24 May 18:32:25 18:37:45 88° 254° (WSW) 18:43:07 437.490
AUBIESAT-1 24 May 18:34:02 18:36:50 18° 57° (ENE) 18:39:31 437.475
BRITE-PL 24 May 18:36:31 18:42:10 80° 257° (WSW) 18:47:55 437.365/2234.400
M-CUBED/EXP-1 PRIME 24 May 18:37:08 18:40:26 23° 59° (ENE) 18:43:33 437.505
RS-15 24 May 18:38:45 18:49:56 65° 119° (ESE) 19:01:45 29.354- 29.394
NOAA 15 24 May 18:40:04 18:45:15 55° 259° (W) 18:50:31 137.62
CUBESAT XI-V 24 May 18:43:15 18:48:00 72° 103° (ESE) 18:52:42 437.345
PCSat 24 May 18:45:51 18:50:59 40° 43° (NE) 18:56:04 145.827
DOVE 4 24 May 18:47:25 18:52:16 40° 68° (ENE) 18:56:58 437.250
Cosmos 2504 24 May 18:55:39 19:02:53 88° 276° (W) 19:10:34 435.465 / 435.565
BEESAT 2 24 May 18:57:41 18:58:53 11° 17° (NNE) 19:00:05 435.950
AIST 2 24 May 18:59:53 19:00:33 10° 349° (N) 19:01:14 435.215
CANX-2 24 May 19:02:59 19:05:50 18° 61° (ENE) 19:08:41 2200.000
MOZHAYETS 4 24 May 19:06:06 19:08:23 14° 304° (NW) 19:10:40
SEEDS 24 May 19:12:58 19:15:23 15° 59° (ENE) 19:17:48 437.485
GOMX 1 24 May 19:18:43 19:24:11 67° 259° (W) 19:29:35 467.674
CUTE-I 24 May 19:20:29 19:25:22 37° 263° (W) 19:30:18 437.470
LilacSat-2 24 May 19:24:17 19:27:29 25° 266° (W) 19:30:41 437.200
O/OREOS (USA 219) 24 May 19:27:57 19:32:09 37° 55° (NE) 19:36:18 437.305
CUTE 1.7 + AOD 2 24 May 19:30:00 19:33:34 27° 66° (ENE) 19:37:10 437.475
BEESAT 3 24 May 19:38:16 19:41:15 20° 32° (NNE) 19:44:14 437.485
HO-68 24 May 19:39:45 19:46:42 59° 65° (ENE) 19:53:42 435.675
YUBILEINY 24 May 19:42:09 19:48:29 22° 306° (NW) 19:54:53 435.215
CINEMA 3 24 May 19:42:48 19:47:16 41° 69° (ENE) 19:51:33 145.822/145.860
NOAA 18 24 May 19:45:45 19:49:44 20° 269° (W) 19:53:44 137.9125
UWE-3 24 May 19:56:00 19:58:22 15° 59° (ENE) 20:00:44 435.000/436.395/437.385
COMPASS 1 24 May 20:03:42 20:07:23 32° 67° (ENE) 20:11:06 437.405
AUBIESAT-1 24 May 20:06:58 20:11:04 55° 253° (WSW) 20:14:53 437.475
AAUSAT CUBESAT 2 24 May 20:09:36 20:13:14 30° 66° (ENE) 20:16:52 437.432
FUNcube-1 24 May 20:09:56 20:11:55 13° 58° (ENE) 20:13:52 145.935
M-CUBED/EXP-1 PRIME 24 May 20:10:48 20:14:51 42° 255° (WSW) 20:18:37 437.505
Cubesat XI-IV 24 May 20:15:50 20:18:36 14° 273° (W) 20:21:23 437.490
BRITE-PL 24 May 20:18:33 20:21:31 14° 276° (W) 20:24:30 437.365/2234.400
STRAND 1 24 May 20:18:49 20:23:52 54° 100° (E) 20:28:54 437.568
CUBESAT XI-V 24 May 20:21:43 20:24:51 18° 301° (WNW) 20:28:00 437.345
DOVE 4 24 May 20:25:16 20:30:00 34° 265° (W) 20:34:37 437.250
PCSat 24 May 20:29:19 20:34:28 45° 244° (WSW) 20:39:35 145.827
BEESAT 2 24 May 20:34:20 20:37:57 31° 39° (NE) 20:41:32 435.950
CANX-2 24 May 20:37:09 20:41:18 58° 260° (W) 20:45:29 2200.000
AIST 2 24 May 20:39:41 20:40:56 11° 14° (NNE) 20:42:10 435.215
SEEDS 24 May 20:46:26 20:50:35 70° 258° (WSW) 20:54:47 437.485
RS-15 24 May 20:51:33 21:02:55 56° 327° (NNW) 21:14:53 29.354- 29.394
Cosmos 2504 24 May 20:52:13 20:57:34 21° 304° (NW) 21:03:10 435.465 / 435.565
CUBEBUG 2 24 May 20:54:29 20:58:51 69° 74° (ENE) 21:03:07 437.445
Oscar 11 24 May 20:55:54 20:59:54 40° 69° (ENE) 21:03:57 145.826/435.025
GOMX 1 24 May 21:01:50 21:03:12 11° 277° (W) 21:04:34 467.674
ZACube-1 24 May 21:03:43 21:07:43 41° 69° (ENE) 21:11:40 437.345
CUTE 1.7 + AOD 2 24 May 21:05:29 21:09:19 34° 264° (W) 21:13:12 437.475
DELFI C3 24 May 21:07:01 21:10:17 25° 65° (ENE) 21:13:35 145.870
O/OREOS (USA 219) 24 May 21:07:33 21:11:28 30° 254° (WSW) 21:15:21 437.305
CUSAT 1 24 May 21:11:11 21:15:48 16° 46° (NE) 21:20:13 437.405
BEESAT 3 24 May 21:15:28 21:19:27 81° 232° (SW) 21:23:23 437.485
CINEMA 3 24 May 21:20:30 21:24:32 27° 266° (W) 21:28:27 145.822/145.860
HO-68 24 May 21:28:26 21:34:47 34° 265° (W) 21:41:11 435.675
UWE-3 24 May 21:30:02 21:34:21 75° 257° (WSW) 21:38:36 435.000/436.395/437.385
AIST 1 24 May 21:32:09 21:35:58 30° 90° (E) 21:39:50
GONETS M04 24 May 21:36:16 21:43:34 31° 81° (E) 21:50:51
COMPASS 1 24 May 21:39:23 21:42:58 28° 265° (W) 21:46:36 437.405
HUMSAT D 24 May 21:40:37 21:44:05 27° 66° (ENE) 21:47:33 437.325/437.525
FUNcube-1 24 May 21:43:21 21:47:36 84° 259° (WSW) 21:51:48 145.935
AAUSAT CUBESAT 2 24 May 21:45:04 21:48:42 30° 265° (W) 21:52:22 437.432
PRISM 24 May 21:48:47 21:53:00 83° 101° (ESE) 21:57:11 437.425
Cosmos 2499 24 May 21:50:05 21:54:52 19° 75° (ENE) 21:59:50 435.465 / 435.565
STRAND 1 24 May 21:58:33 22:02:45 26° 299° (WNW) 22:06:57 437.568
ESTCUBE 1 24 May 22:06:43 22:09:12 15° 56° (ENE) 22:11:40 437.505/2401.250
BEESAT 2 24 May 22:12:08 22:15:53 39° 239° (WSW) 22:19:36 435.950
DANDE 24 May 22:16:32 22:22:57 24° 55° (NE) 22:29:22 436.750
AIST 2 24 May 22:17:07 22:20:46 28° 37° (NE) 22:24:23 435.215
ANTELSAT 24 May 22:32:36 22:35:15 16° 90° (E) 22:37:54 437.575/2403.000
Oscar 11 24 May 22:32:41 22:36:11 24° 267° (W) 22:39:43 145.826/435.025
CUBEBUG 2 24 May 22:33:30 22:35:56 14° 271° (W) 22:38:20 437.445
50 SAT 24 May 22:34:48 22:36:56 15° 61° (ENE) 22:39:05 437.505
ZACube-1 24 May 22:40:52 22:44:12 22° 267° (W) 22:47:31 437.345
VELOX 1 24 May 22:41:15 22:44:34 21° 61° (ENE) 22:47:54 145.980
DELFI C3 24 May 22:41:25 22:45:02 34° 264° (W) 22:48:42 145.870
CUBEBUG 1 24 May 22:42:42 22:46:03 21° 61° (ENE) 22:49:23 437.445
DX 1 24 May 22:46:57 22:50:10 20° 60° (ENE) 22:53:23 434.975-435.025
CUSAT 1 24 May 22:52:05 23:00:00 54° 70° (ENE) 23:06:59 437.405
BEESAT 3 24 May 22:55:55 22:56:26 10° 251° (WSW) 22:56:57 437.485
RS-15 24 May 23:07:40 23:18:36 38° 359° (N) 23:29:53 29.354- 29.394
AIST 1 24 May 23:09:36 23:13:31 31° 289° (WNW) 23:17:30
AISAT 24 May 23:15:47 23:20:01 42° 68° (ENE) 23:24:15 437.250
HUMSAT D 24 May 23:15:58 23:19:38 32° 264° (W) 23:23:21 437.325/437.525
ISS 24 May 23:22:14 23:25:02 26° 144° (SE) 23:27:50 145.825
SPROUT 24 May 23:24:09 23:27:26 22° 62° (ENE) 23:30:42 437.525
PRISM 24 May 23:25:39 23:27:44 14° 303° (WNW) 23:29:48 437.425
UNISAT 6 24 May 23:26:46 23:30:58 53° 100° (E) 23:35:11 437.425
GONETS M04 24 May 23:30:54 23:39:42 71° 283° (WNW) 23:48:29
TIGRISAT 24 May 23:35:24 23:39:39 61° 102° (ESE) 23:43:54 435.000
Cosmos 2499 24 May 23:39:27 23:46:42 87° 97° (E) 23:54:33 435.465 / 435.565
ESTCUBE 1 24 May 23:40:51 23:45:22 86° 256° (WSW) 23:49:57 437.505/2401.250
UKube-1 24 May 23:40:52 23:45:04 50° 70° (ENE) 23:49:18 .
POPSAT HIP 1 24 May 23:50:04 23:53:07 19° 92° (E) 23:56:09 437.405
QB50P1 24 May 23:50:44 23:53:51 20° 92° (E) 23:56:56 145.935-145.965
QB50P2 24 May 23:51:48 23:55:03 21° 92° (E) 23:58:17 145.880/145.840
POLYITAN 1 24 May 23:54:13 23:57:30 22° 93° (E) 00:00:45 437.675
AIST 2 24 May 23:55:26 23:59:27 50° 237° (WSW) 00:03:28 435.215
DANDE 24 May 23:58:44 00:07:10 78° 77° (ENE) 00:15:18 436.750
TISAT 1 25 May 00:00:36 00:03:16 17° 59° (ENE) 00:05:56 437.305
50 SAT 25 May 00:06:44 00:10:18 53° 260° (W) 00:13:54 437.505
ANTELSAT 25 May 00:08:09 00:12:23 61° 288° (WNW) 00:16:38 437.575/2403.000
NANOSAT C BR1 25 May 00:10:35 00:14:16 29° 95° (E) 00:17:56 145.865
VELOX 1 25 May 00:16:19 00:20:42 55° 259° (W) 00:25:07 145.980
CUBEBUG 1 25 May 00:17:40 00:22:00 53° 260° (W) 00:26:23 437.445
DX 1 25 May 00:21:42 00:26:00 55° 259° (WSW) 00:30:21 434.975-435.025
CUSAT 1 25 May 00:34:37 00:41:56 41° 272° (W) 00:48:26 437.405
SO-50 25 May 00:49:45 00:52:44 16° 110° (ESE) 00:55:42 436.795
DUCHIFAT 1 25 May 00:50:24 00:54:35 71° 102° (ESE) 00:58:45 145.980
SWISSCUBE 25 May 00:50:40 00:53:22 15° 56° (NE) 00:56:05 437.505
AISAT 25 May 00:52:59 00:56:39 25° 266° (W) 01:00:21 437.250
ITUPSAT 1 25 May 00:55:11 00:57:51 15° 55° (NE) 01:00:32 437.325
ISS 25 May 00:57:59 01:01:15 81° 342° (NNW) 01:04:32 145.825
SPROUT 25 May 00:58:57 01:03:06 48° 261° (W) 01:07:17 437.525
UNISAT 6 25 May 01:04:17 01:07:22 20° 299° (WNW) 01:10:28 437.425
PHONESAT 2.4 25 May 01:09:51 01:11:36 14° 169° (SSE) 01:13:22 2401.200-2431.200
TIGRISAT 25 May 01:13:07 01:15:57 17° 300° (WNW) 01:18:46 435.000
JAS-2 25 May 01:16:05 01:22:58 35° 91° (E) 01:29:16 435.910
UKube-1 25 May 01:18:14 01:21:24 20° 268° (W) 01:24:36 .
BEESAT 25 May 01:19:28 01:23:13 23° 61° (ENE) 01:26:58 436.000
BUGSAT 1 25 May 01:21:30 01:25:35 73° 104° (ESE) 01:29:36 437.445
ESTCUBE 1 25 May 01:21:37 01:22:54 11° 274° (W) 01:24:12 437.505/2401.250
RS-15 25 May 01:22:32 01:34:25 54° 32° (NNE) 01:46:28 29.354- 29.394
POPSAT HIP 1 25 May 01:25:07 01:29:11 48° 290° (WNW) 01:33:12 437.405
QB50P1 25 May 01:25:50 01:29:53 46° 290° (WNW) 01:33:54 145.935-145.965
QB50P2 25 May 01:27:04 01:31:05 43° 291° (WNW) 01:35:03 145.880/145.840
POLYITAN 1 25 May 01:29:30 01:33:30 42° 291° (WNW) 01:37:27 437.675
GONETS M04 25 May 01:32:26 01:38:24 20° 308° (NW) 01:44:23
TISAT 1 25 May 01:34:15 01:38:28 66° 258° (WSW) 01:42:41 437.305
Cosmos 2499 25 May 01:35:25 01:41:04 23° 303° (WNW) 01:47:01 435.465 / 435.565
DANDE 25 May 01:42:25 01:49:20 30° 277° (W) 01:56:04 436.750
NANOSAT C BR1 25 May 01:46:18 01:50:01 31° 294° (WNW) 01:53:43 145.865
YUBILEINY 25 May 01:50:30 01:56:07 18° 50° (NE) 02:01:44 435.215
Gurwin Techsat 1B 25 May 02:23:29 02:27:39 23° 91° (E) 02:31:47 435.225
Oscar 19 25 May 02:24:22 02:29:24 48° 99° (E) 02:34:21 437.125/150
SWISSCUBE 25 May 02:25:45 02:30:31 89° 247° (WSW) 02:35:19 437.505
DUCHIFAT 1 25 May 02:27:22 02:29:47 15° 301° (WNW) 02:32:12 145.980
SO-50 25 May 02:27:39 02:32:35 89° 314° (NW) 02:37:30 436.795
ITUPSAT 1 25 May 02:30:15 02:35:01 90° 75° (ENE) 02:39:50 437.325
ISS 25 May 02:34:41 02:37:54 54° 3° (N) 02:41:07 145.825
PHONESAT 2.4 25 May 02:45:38 02:47:41 16° 185° (S) 02:49:42 2401.200-2431.200
Cosmos 2504 25 May 02:50:47 02:53:54 12° 46° (NE) 02:57:05 435.465 / 435.565
Cosmos 2491 25 May 02:54:19 02:58:24 14° 69° (ENE) 03:02:29 435.465 / 435.565
BEESAT 25 May 02:56:04 03:00:42 53° 260° (W) 03:05:23 436.000
MOZHAYETS 4 25 May 02:57:28 03:00:50 21° 61° (ENE) 03:04:12
BUGSAT 1 25 May 02:58:17 03:00:26 14° 302° (WNW) 03:02:34 437.445
ITAMSAT 1 25 May 03:00:07 03:03:50 19° 90° (E) 03:07:32 435.822/435.867
JAS-2 25 May 03:00:48 03:08:23 60° 293° (WNW) 03:15:18 435.910
KKS-1 25 May 03:02:59 03:06:53 30° 65° (ENE) 03:10:47 437.445
RS-15 25 May 03:35:33 03:47:43 71° 239° (WSW) 03:59:52 29.354- 29.394
YUBILEINY 25 May 03:46:14 03:54:57 66° 76° (ENE) 04:03:40 435.215
STARS 25 May 03:46:25 03:50:34 41° 68° (ENE) 03:54:43 437.465
Gurwin Techsat 1B 25 May 04:02:46 04:08:01 60° 290° (WNW) 04:13:13 435.225
Oscar 19 25 May 04:04:07 04:08:30 29° 298° (WNW) 04:12:51 437.125/150
SWISSCUBE 25 May 04:07:01 04:09:02 12° 273° (W) 04:11:01 437.505
SO-50 25 May 04:09:43 04:13:43 24° 330° (NNW) 04:17:42 436.795
ISS 25 May 04:11:12 04:14:29 74° 200° (SSW) 04:17:43 145.825
ITUPSAT 1 25 May 04:11:29 04:13:34 13° 273° (W) 04:15:40 437.325
CUBESAT XI-V 25 May 04:15:14 04:18:14 17° 58° (ENE) 04:21:16 437.345
MOZHAYETS 4 25 May 04:33:09 04:37:38 57° 260° (W) 04:42:09
AO-7 25 May 04:37:10 04:45:13 48° 100° (E) 04:53:12 29.400- 29.500
ITAMSAT 1 25 May 04:38:37 04:43:49 69° 289° (WNW) 04:49:00 435.822/435.867
KKS-1 25 May 04:39:16 04:43:23 35° 263° (W) 04:47:30 437.445
Cosmos 2504 25 May 04:41:50 04:49:43 47° 71° (ENE) 04:58:02 435.465 / 435.565
Cosmos 2491 25 May 04:44:41 04:53:20 63° 92° (E) 05:01:59 435.465 / 435.565
JAS-2 25 May 04:47:10 04:51:51 18° 315° (NW) 04:56:21 435.910
STARS 25 May 05:23:27 05:27:05 24° 266° (W) 05:30:43 437.465
YUBILEINY 25 May 05:43:44 05:51:11 33° 278° (W) 05:58:39 435.215
Gurwin Techsat 1B 25 May 05:44:59 05:46:56 12° 310° (NW) 05:48:52 435.225
ISS 25 May 05:48:18 05:50:30 17° 221° (SW) 05:52:40 145.825
RS-15 25 May 05:49:49 05:57:57 21° 263° (W) 06:06:05 29.354- 29.394
CUBESAT XI-V 25 May 05:50:24 05:55:04 75° 257° (WSW) 05:59:48 437.345
HORYU 2 25 May 05:52:19 05:56:40 53° 101° (E) 06:01:00 437.375
SO-50 25 May 05:53:31 05:55:53 13° 354° (N) 05:58:14 436.795
STRAND 1 25 May 06:01:41 06:05:20 20° 57° (ENE) 06:09:00 437.568
AO-85 25 May 06:15:10 06:18:27 16° 109° (ESE) 06:21:42 145.980
ITAMSAT 1 25 May 06:19:58 06:22:23 13° 309° (NW) 06:24:48 435.822/435.867
NOAA 18 25 May 06:21:36 06:25:37 20° 91° (E) 06:29:38 137.9125
AO-7 25 May 06:30:07 06:38:04 50° 301° (WNW) 06:46:01 29.400- 29.500
Cosmos 2504 25 May 06:35:23 06:43:10 48° 271° (W) 06:51:22 435.465 / 435.565
BRITE-PL 25 May 06:38:13 06:42:43 27° 91° (E) 06:46:55 437.365/2234.400
Cosmos 2491 25 May 06:42:43 06:50:43 37° 295° (WNW) 06:58:46 435.465 / 435.565
Cubesat XI-IV 25 May 06:45:45 06:50:16 27° 93° (E) 06:54:46 437.490
NOAA 15 25 May 06:50:51 06:55:53 41° 98° (E) 07:00:52 137.62
LilacSat-2 25 May 06:53:06 06:56:16 25° 94° (E) 06:59:25 437.200
PRISM 25 May 07:09:08 07:11:19 14° 58° (ENE) 07:13:31 437.425
GOMX 1 25 May 07:17:19 07:21:31 28° 92° (E) 07:25:27 467.674
HORYU 2 25 May 07:29:36 07:32:54 21° 299° (WNW) 07:36:12 437.375
CUTE-I 25 May 07:32:29 07:37:50 64° 102° (ESE) 07:43:08 437.470
Cosmos 2499 25 May 07:33:42 07:36:38 12° 44° (NE) 07:39:37 435.465 / 435.565
SO-50 25 May 07:35:07 07:38:17 17° 19° (NNE) 07:41:25 436.795
AIST 1 25 May 07:35:37 07:37:45 13° 62° (ENE) 07:39:52
STRAND 1 25 May 07:38:54 07:44:00 72° 257° (WSW) 07:49:08 437.568
GONETS M04 25 May 07:39:59 07:46:06 20° 53° (NE) 07:52:12
AO-85 25 May 07:52:49 07:58:17 83° 127° (SE) 08:03:36 145.980
NOAA 18 25 May 08:01:21 08:06:48 69° 290° (WNW) 08:12:15 137.9125
BRITE-PL 25 May 08:16:19 08:21:27 47° 292° (WNW) 08:26:11 437.365/2234.400
CANX-2 25 May 08:18:37 08:21:39 19° 91° (E) 08:24:41 2200.000
DOVE 4 25 May 08:19:49 08:24:16 52° 99° (E) 08:28:27 437.250
AO-7 25 May 08:24:12 08:28:59 17° 325° (NW) 08:33:46 29.400- 29.500
Cubesat XI-IV 25 May 08:25:26 08:30:37 51° 292° (WNW) 08:35:47 437.490
SEEDS 25 May 08:27:15 08:29:44 15° 89° (E) 08:32:13 437.485
LilacSat-2 25 May 08:27:16 08:30:37 30° 292° (WNW) 08:33:56 437.200
NOAA 15 25 May 08:30:50 08:35:36 34° 297° (WNW) 08:40:19 137.62
PRISM 25 May 08:41:55 08:46:04 79° 257° (WSW) 08:50:17 437.425
CUTE 1.7 + AOD 2 25 May 08:45:53 08:49:40 30° 95° (E) 08:53:27 437.475
HO-68 25 May 08:50:17 08:57:00 41° 97° (E) 09:03:41 435.675
GOMX 1 25 May 08:55:12 08:59:45 39° 293° (WNW) 09:04:00 467.674
UNISAT 6 25 May 08:56:26 08:57:48 11° 56° (NE) 08:59:10 437.425
TIGRISAT 25 May 09:04:19 09:06:13 13° 57° (ENE) 09:08:06 435.000
CINEMA 3 25 May 09:10:10 09:14:19 53° 100° (E) 09:18:22 145.822/145.860
AIST 1 25 May 09:11:36 09:16:00 81° 263° (W) 09:20:20
CUTE-I 25 May 09:13:18 09:17:28 24° 301° (WNW) 09:21:38 437.470
SO-50 25 May 09:15:16 09:19:55 48° 42° (NE) 09:24:24 436.795
AUBIESAT-1 25 May 09:16:20 09:19:36 45° 106° (ESE) 09:22:46 437.475
UWE-3 25 May 09:16:26 09:18:56 15° 90° (E) 09:21:27 435.000/436.395/437.385
COMPASS 1 25 May 09:17:24 09:21:16 34° 96° (E) 09:25:07 437.405
M-CUBED/EXP-1 PRIME 25 May 09:20:36 09:23:57 65° 108° (ESE) 09:27:11 437.505
AAUSAT CUBESAT 2 25 May 09:22:40 09:26:26 31° 95° (E) 09:30:12 437.432
STRAND 1 25 May 09:23:06 09:24:07 11° 276° (W) 09:25:08 437.568
Cosmos 2499 25 May 09:24:22 09:32:23 45° 70° (ENE) 09:40:43 435.465 / 435.565
FUNcube-1 25 May 09:28:30 09:30:34 13° 88° (E) 09:32:38 145.935
AO-85 25 May 09:34:44 09:39:22 28° 328° (NNW) 09:43:50 145.980
ANTELSAT 25 May 09:35:13 09:38:44 24° 64° (ENE) 09:42:12 437.575/2403.000
PCSat 25 May 09:35:13 09:37:21 12° 102° (ESE) 09:39:28 145.827
GONETS M04 25 May 09:35:57 09:44:43 75° 78° (ENE) 09:53:24
NOAA 18 25 May 09:43:44 09:46:32 14° 310° (NW) 09:49:20 137.9125
O/OREOS (USA 219) 25 May 09:45:38 09:48:46 19° 101° (E) 09:51:55 437.305
CANX-2 25 May 09:53:39 09:57:49 51° 289° (WNW) 10:01:58 2200.000
DOVE 4 25 May 09:58:15 10:01:36 21° 300° (WNW) 10:04:50 437.250
SEEDS 25 May 10:01:40 10:05:53 64° 287° (WNW) 10:10:05 437.485
Cubesat XI-IV 25 May 10:08:39 10:09:31 10° 312° (NW) 10:10:24 437.490
DUCHIFAT 1 25 May 10:13:23 10:15:08 12° 57° (ENE) 10:16:53 145.980
Oscar 11 25 May 10:14:35 10:18:46 45° 99° (E) 10:22:56 145.826/435.025
DELFI C3 25 May 10:14:55 10:18:09 23° 93° (E) 10:21:23 145.870
CUBEBUG 2 25 May 10:17:29 10:21:39 87° 104° (ESE) 10:25:50 437.445
CUTE 1.7 + AOD 2 25 May 10:21:42 10:25:30 32° 293° (WNW) 10:29:19 437.475
ZACube-1 25 May 10:23:36 10:27:40 49° 99° (E) 10:31:44 437.345
UNISAT 6 25 May 10:29:26 10:33:48 78° 75° (ENE) 10:38:08 437.425
TIGRISAT 25 May 10:37:54 10:42:17 89° 76° (ENE) 10:46:37 435.000
HO-68 25 May 10:38:01 10:44:52 50° 297° (WNW) 10:51:42 435.675
BUGSAT 1 25 May 10:42:33 10:44:15 12° 57° (ENE) 10:45:57 437.445
POPSAT HIP 1 25 May 10:46:23 10:49:53 26° 64° (ENE) 10:53:24 437.405
QB50P1 25 May 10:47:00 10:50:33 26° 64° (ENE) 10:54:05 145.935-145.965
CINEMA 3 25 May 10:48:11 10:51:07 19° 299° (WNW) 10:54:01 145.822/145.860
QB50P2 25 May 10:48:15 10:51:53 28° 65° (ENE) 10:55:31 145.880/145.840
POLYITAN 1 25 May 10:50:41 10:54:19 29° 65° (ENE) 10:57:58 437.675
UWE-3 25 May 10:51:42 10:55:48 59° 288° (WNW) 10:59:55 435.000/436.395/437.385
AUBIESAT-1 25 May 10:51:47 10:53:49 15° 305° (NW) 10:55:49 437.475
COMPASS 1 25 May 10:53:09 10:56:45 28° 294° (WNW) 11:00:21 437.405
HUMSAT D 25 May 10:54:47 10:58:23 28° 95° (E) 11:02:00 437.325/437.525
SO-50 25 May 10:56:06 11:00:14 31° 243° (WSW) 11:04:14 436.795
M-CUBED/EXP-1 PRIME 25 May 10:56:48 10:58:04 12° 307° (NW) 10:59:20 437.505
AAUSAT CUBESAT 2 25 May 10:58:14 11:01:53 30° 294° (WNW) 11:05:33 437.432
FUNcube-1 25 May 11:03:09 11:07:18 69° 286° (WNW) 11:11:29 145.935
NANOSAT C BR1 25 May 11:06:29 11:10:24 38° 68° (ENE) 11:14:19 145.865
ANTELSAT 25 May 11:11:08 11:15:16 41° 262° (W) 11:19:22 437.575/2403.000
PCSat 25 May 11:14:23 11:19:47 72° 121° (ESE) 11:25:13 145.827
Cosmos 2499 25 May 11:17:35 11:25:39 52° 270° (W) 11:34:04 435.465 / 435.565
AO-85 25 May 11:18:38 11:21:31 15° 351° (N) 11:24:18 145.980
O/OREOS (USA 219) 25 May 11:23:13 11:27:44 60° 300° (WNW) 11:32:15 437.305
ESTCUBE 1 25 May 11:30:21 11:33:04 15° 89° (E) 11:35:46 437.505/2401.250
JAS-2 25 May 11:32:10 11:38:21 29° 54° (NE) 11:44:46 435.910
GONETS M04 25 May 11:33:41 11:40:44 29° 280° (W) 11:47:45
DANDE 25 May 11:33:59 11:36:02 12° 70° (ENE) 11:38:13 436.750
DUCHIFAT 1 25 May 11:45:58 11:50:11 88° 84° (E) 11:54:26 145.980
DELFI C3 25 May 11:49:25 11:53:09 37° 291° (WNW) 11:56:53 145.870
Oscar 11 25 May 11:51:15 11:54:39 23° 297° (WNW) 11:58:03 145.826/435.025
CUBEBUG 2 25 May 11:55:58 11:57:41 12° 303° (WNW) 11:59:23 437.445
